Temp
19 19 19 19 19 20 21 20 20 20 20 20 20 20 20 19 19 20 19 19 19 18 18 18 18 18 18 18 18 19 19 19 19 19 19 18 19 19 19 19 18 18 17
20 18 19 19 19 20 20 20 20 20 20 20 20 20 20 20 19 19 19 19 18 18 19 19 18 17 18 19 19 18 18 18 18 18 18 19 19 19 19 19 19 18 18
20 19 19 18 19 20 20 20 20 20 20 20 20 20 19 19 19 19 18 19 18 18 20 20 20 20 19 19 19 19 18 18 18 18 18 19 19 19 19 18 18 18 18
20 19 19 19 19 20 20 20 20 20 20 20 19 19 19 19 19 18 18 18 18 18 19 20 20 20 20 20 19 19 19 19 19 19 19 19 19 19 19 19 19 18 18
19 20 20 20 20 20 20 20 20 20 19 19 19 19 19 19 19 19 18 18 17 17 18 20 20 20 20 20 20 19 19 19 19 19 18 18 18 18 19 19 19 18 18
19 19 20 20 20 20 21 21 20 20 20 19 19 19 18 18 19 19 18 18 17 17 18 20 20 20 20 20 19 19 19 19 19 19 19 18 18 19 19 19 19 19 18
18 18 20 19 20 20 21 21 21 20 20 20 19 19 19 19 18 18 18 18 19 20 19 19 20 20 19 19 19 19 19 19 19 19 18 19 19 20 20 19 18 19 19
18 18 19 19 19 20 20 21 20 20 20 20 20 19 19 19 19 18 18 18 18 19 20 20 19 19 19 19 19 20 20 20 19 19 20 19 20 20 20 20 19 19 19
18 18 18 18 19 19 20 20 20 20 20 19 19 19 19 19 19 19 19 19 19 19 19 20 20 20 20 20 20 20 21 20 20 20 20 19 20 20 20 19 20 20 20
17 18 18 18 18 19 19 19 20 20 20 19 19 19 19 19 19 19 19 19 19 20 19 19 20 20 20 20 20 21 21 21 19 20 20 20 21 21 20 20 20 20 20
17 17 18 18 18 18 19 19 19 19 19 19 19 19 19 19 19 19 19 19 20 20 20 20 20 20 20 20 20 20 20 19 19 20 20 21 21 21 21 21 20 20 20
17 17 17 17 17 18 18 19 19 19 19 18 18 18 18 18 18 18 18 19 19 19 20 20 20 20 20 19 19 20 19 20 20 19 20 21 21 21 21 21 21 21 21
17 16 17 17 17 18 18 19 18 18 18 18 18 18 18 18 18 18 19 19 19 19 18 19 20 19 20 20 19 19 19 20 19 20 20 22 22 21 21 21 21 21 21
16 16 17 17 17 18 18 18 18 18 18 17 18 18 18 18 18 18 18 19 18 18 18 18 18 19 19 19 20 20 20 20 19 19 20 22 22 22 22 22 21 21 21
15 16 17 17 17 18 18 18 17 17 17 16 16 17 17 17 18 18 18 18 18 19 19 18 18 18 18 18 18 19 19 19 20 20 20 22 22 22 22 22 22 21 21
14 15 16 17 17 17 17 17 16 17 16 16 16 16 17 18 19 19 17 17 17 17 17 18 18 18 18 18 19 20 20 20 19 20 19 20 22 22 22 22 22 22 22
13 13 14 15 16 17 16 16 16 15 15 15 15 15 16 16 17 17 17 17 17 16 17 17 17 17 17 18 18 18 18 19 19 20 21 20 20 21 22 22 22 22 22
12 13 14 14 15 15 15 14 14 14 14 14 14 14 15 15 16 16 15 15 15 15 16 16 15 16 17 17 18 18 18 18 18 18 19 19 19 20 20 21 21 21 22
11 12 13 12 12 13 13 13 13 13 13 12 12 13 13 13 13 14 13 13 12 12 12 12 14 14 15 15 15 17 18 18 18 19 19 19 19 19 19 20 19 20 21
10 10 11 12 12 12 11 11 11 12 11 12 11 11 12 12 13 12 12 11 10 10 11 12 12 12 13 12 14 16 17 18 19 19 18 18 19 18 18 18 19 19 19
10 10 10 11 11 11 10 10 9 9 8 10 9 10 11 11 11 12 11 11 9 9 8 9 9 11 12 11 14 15 16 18 18 16 16 17 18 17 17 17 17 18 18
9 9 10 11 11 11 10 9 8 8 7 7 7 7 9 9 9 8 8 7 7 8 7 7 8 9 11 10 10 12 17 18 16 15 16 16 14 14 15 14 15 15 16
9 9 9 10 10 10 9 9 8 7 7 7 7 6 6 7 8 8 8 7 6 6 6 6 6 7 8 10 8 9 12 13 12 16 14 13 13 12 13 13 13 14 14
8 8 8 9 10 10 10 8 7 8 7 6 6 6 5 6 6 6 6 6 5 5 5 6 5 5 6 8 9 7 6 7 10 11 12 11 12 10 11 11 12 12 12
8 8 8 8 8 8 9 7 7 6 6 6 6 5 5 5 4 4 4 4 4 4 4 4 4 4 5 5 6 6 6 7 9 7 9 10 8 9 9 9 8 10 11
8 8 7 7 7 8 8 7 6 6 6 6 5 6 5 5 4 4 4 4 4 4 4 4 4 4 4 5 5 5 5 5 6 4 5 5 6 8 6 8 8 10 10
Height
818 821 822 824 825 825 825 826 826 827 828 829 830 832 832 834 835 835 836 837 837 837 838 838 839 840 839 839 841 841 843 844 844 845 846 846 846 846 847 848 849 850 848
816 821 824 826 828 828 828 828 829 830 831 832 834 835 835 836 837 838 838 839 839 839 840 840 840 841 841 842 843 844 846 847 848 849 849 849 849 849 849 850 851 851 851
816 820 824 828 828 829 830 831 832 833 834 835 836 837 838 839 839 839 840 840 840 840 841 841 841 842 843 843 844 846 847 849 850 850 850 852 852 852 852 853 854 853 854
818 822 824 828 830 830 832 833 834 836 837 838 839 840 840 841 841 842 843 843 842 842 842 843 843 844 844 846 847 848 849 850 850 851 853 854 854 853 853 853 854 855 855
820 823 826 828 831 832 833 834 836 838 839 840 841 841 842 842 843 843 844 845 844 844 844 844 846 847 848 849 851 852 852 852 852 853 854 855 855 854 854 854 855 855 856
822 825 828 831 833 834 835 835 836 838 839 841 843 844 844 844 845 845 845 845 845 846 846 847 847 849 850 852 853 854 854 854 854 855 855 855 855 855 854 855 855 855 855
825 828 831 834 836 836 837 838 839 839 840 841 843 844 846 846 846 847 846 846 846 847 848 849 850 851 852 853 853 854 855 855 855 856 855 855 855 855 855 855 855 854 854
826 829 832 835 838 838 839 840 841 842 843 844 845 845 846 847 847 848 848 848 848 849 849 850 851 852 853 853 854 854 854 855 854 855 854 854 855 854 855 855 854 854 854
829 831 834 836 838 840 841 842 843 844 845 845 846 847 848 848 848 848 849 849 849 850 851 851 852 853 853 854 854 854 854 854 854 854 853 854 853 852 853 853 853 853 852
831 834 836 838 839 841 843 844 845 845 846 847 848 848 848 849 849 850 850 850 850 851 852 853 853 853 853 854 854 854 854 854 854 854 853 852 851 851 851 850 850 850 850
834 836 838 839 841 842 844 845 846 847 847 848 848 849 850 850 850 850 850 850 851 851 851 852 853 853 853 853 854 853 853 853 853 852 851 850 850 849 848 848 847 846 846
835 837 838 839 841 843 844 845 847 848 849 849 850 850 851 851 851 851 851 851 851 851 852 852 852 852 852 852 852 852 852 851 851 850 849 847 847 846 846 845 844 842 842
835 836 837 839 841 842 844 845 847 848 849 850 850 850 850 851 851 851 850 851 851 851 852 852 851 851 851 851 850 850 849 848 848 846 845 844 843 843 842 841 840 839 838
834 835 837 838 840 842 844 845 847 848 849 849 850 850 850 850 850 850 850 850 850 850 850 850 850 849 849 849 848 847 846 845 844 842 840 839 839 838 838 837 835 834 834
834 834 835 837 839 841 843 845 846 848 849 849 848 848 848 848 848 848 848 849 849 848 848 848 848 847 846 846 845 844 842 841 840 838 836 834 833 832 832 831 830 829 828
834 834 835 836 838 841 841 842 844 845 847 847 847 847 847 847 847 846 847 847 847 846 846 845 844 843 843 842 840 839 838 836 835 833 832 830 828 827 826 825 824 823 822
835 835 836 836 837 838 840 841 843 845 845 847 848 848 846 846 846 846 845 845 844 843 843 842 841 840 838 837 835 834 832 831 829 828 826 825 823 821 819 818 817 816 815
835 835 836 837 836 838 840 841 843 845 845 846 847 848 847 846 846 845 844 843 843 842 841 840 839 838 837 835 831 829 827 825 823 822 820 819 818 815 813 810 809 808 808
837 837 836 837 839 840 842 842 844 845 846 848 848 848 849 847 847 845 845 844 843 842 840 839 837 837 835 832 829 825 823 821 818 817 814 813 811 809 807 805 802 801 799
839 839 839 839 840 843 843 844 846 846 849 849 850 851 850 849 848 847 846 845 843 843 841 838 838 836 836 832 827 822 818 816 812 811 810 808 807 805 802 800 798 796 793
841 841 841 843 844 844 846 847 849 852 852 851 853 853 852 851 850 849 847 846 845 844 843 840 840 838 836 831 825 820 814 810 809 809 807 805 804 802 800 798 795 792 789
843 843 843 845 846 845 848 849 852 852 855 855 857 856 854 854 853 851 849 848 847 846 844 842 840 839 837 836 834 827 814 809 808 805 805 803 802 801 798 795 792 789 786
847 846 846 847 847 847 850 851 852 853 858 858 858 859 859 858 855 853 852 850 849 848 847 846 843 842 840 838 837 837 830 823 818 804 804 802 801 799 796 793 789 785 781
850 850 849 850 850 851 852 852 855 857 859 860 861 862 862 859 857 855 853 852 850 850 849 848 846 844 842 841 840 841 841 839 830 811 804 804 802 799 795 791 786 781 777
853 852 853 852 854 855 855 856 858 859 861 863 864 864 863 861 859 857 855 854 852 852 851 850 848 847 846 845 843 842 840 837 833 832 811 802 801 799 794 789 782 778 774
854 854 856 855 858 859 859 859 859 860 863 864 863 862 862 862 861 859 858 856 854 853 852 851 850 849 848 847 845 843 842 840 836 834 824 815 806 793 791 786 782 776 771
Wind_Speed
12 14 13 12 13 14 14 15 15 19 21 19 17 16 15 13 12 11 10 11 12 12 13 13 15 15 16 17 16 17 16 15 14 14 14 13 13 14 13 12 13 11 13
20 17 16 13 13 15 16 16 17 17 18 17 15 14 13 11 9 10 9 9 10 13 11 11 14 13 14 17 18 17 16 14 14 12 11 11 11 10 9 9 12 10 9
21 18 17 15 15 17 18 18 18 17 16 16 15 13 12 11 9 9 9 9 10 11 9 10 11 13 15 16 16 15 14 13 12 10 10 8 7 6 6 7 7 9 11
21 18 17 16 15 18 20 20 19 18 16 14 13 13 12 11 10 9 10 10 11 11 10 10 13 15 16 16 16 15 14 12 10 8 6 5 4 5 5 5 6 6 6
20 19 18 17 16 17 19 20 18 17 15 14 13 12 10 10 9 9 10 9 10 12 12 13 15 15 16 15 14 13 11 10 7 5 3 2 2 2 3 4 4 6 7
18 18 18 16 16 16 16 17 16 15 14 14 11 11 11 9 8 8 9 9 9 10 12 14 16 16 15 13 11 8 7 7 6 3 1 1 1 3 3 4 5 7 8
16 16 17 15 14 14 14 14 14 13 12 11 10 9 9 8 8 7 8 8 7 9 11 12 14 14 11 9 6 3 4 5 5 4 4 4 4 5 5 6 7 7 8
17 17 15 14 13 12 12 12 12 11 10 9 7 7 7 7 6 6 6 6 6 7 8 9 10 9 7 5 2 0 2 4 5 5 6 6 7 7 7 9 9 10 11
15 17 14 12 12 11 10 10 10 9 8 8 7 5 5 5 5 5 5 5 5 5 5 6 7 7 5 5 4 4 5 6 6 6 7 6 7 9 10 11 13 13 14
14 13 13 12 10 10 10 8 8 7 6 5 5 4 3 3 3 3 3 3 4 4 4 5 5 5 6 6 7 8 8 9 8 8 8 7 9 9 11 14 17 17 16
11 11 10 10 9 10 9 8 6 6 5 4 3 2 1 0 1 1 0 1 2 3 3 4 5 6 7 9 9 10 11 10 11 11 11 12 12 13 14 16 18 19 20
9 10 10 10 9 9 8 7 6 4 3 1 0 1 2 2 2 2 3 3 4 4 4 5 6 8 9 9 10 12 12 13 15 13 13 16 15 15 16 16 18 17 19
9 8 10 9 8 9 8 7 5 3 1 1 2 3 4 4 5 5 4 4 6 7 7 8 8 9 10 11 11 13 14 16 14 15 17 19 19 20 20 20 19 18 18
8 8 8 8 9 10 7 6 4 1 2 4 5 5 6 6 7 7 7 7 8 7 9 9 10 12 14 15 16 17 17 17 14 16 19 23 22 22 23 23 23 22 21
8 7 10 9 9 9 5 4 2 2 2 2 1 1 3 4 4 5 6 7 8 10 12 13 13 14 16 16 17 19 20 19 20 19 19 22 22 22 23 24 25 25 26
8 9 9 9 9 8 9 10 8 7 5 3 3 3 0 1 3 5 5 5 6 8 10 12 13 15 16 17 21 22 24 25 23 24 20 21 25 25 26 26 26 26 27
8 10 10 11 12 13 13 12 11 10 9 7 8 8 6 3 2 4 4 6 8 7 9 9 10 12 14 14 17 18 18 21 22 24 25 22 23 27 28 29 29 30 31
10 12 13 13 15 16 16 16 16 15 15 14 12 11 10 10 7 6 6 7 8 8 9 9 10 12 12 14 15 17 17 18 19 21 22 22 22 23 26 30 31 32 33
12 15 20 21 20 20 21 22 20 18 17 16 15 13 13 12 12 10 11 11 10 10 10 11 9 11 11 12 15 17 19 21 21 20 22 23 23 25 25 26 30 30 30
14 15 19 21 21 20 23 23 23 23 21 20 19 18 17 17 16 14 15 14 13 13 15 15 14 12 9 16 18 17 16 20 20 17 17 16 18 20 20 21 22 24 29
17 17 18 21 21 21 18 20 15 16 18 22 19 19 20 19 18 17 16 16 15 15 16 17 14 12 12 21 11 13 14 12 9 7 9 15 16 18 19 20 21 23 26
18 19 19 18 16 18 16 16 14 16 17 17 16 19 20 19 19 18 18 17 17 14 17 18 17 14 11 18 12 11 6 10 7 18 13 13 13 15 18 20 21 22 25
18 19 21 20 21 21 20 20 20 18 14 15 16 16 17 18 19 19 19 17 17 16 16 16 16 16 13 11 12 9 4 4 21 8 19 14 26 21 26 24 26 24 24
17 19 21 22 23 22 20 19 17 16 16 14 14 13 14 17 18 18 18 17 16 14 16 15 15 15 13 13 10 12 8 10 4 9 13 29 16 30 26 28 26 30 27
17 19 21 24 23 22 21 20 18 19 16 13 12 12 13 15 17 17 16 15 15 14 14 14 15 16 14 10 10 14 7 13 6 9 13 20 31 27 25 29 33 25 27
17 19 19 21 21 21 21 21 20 18 15 14 14 13 13 12 14 16 15 14 14 14 14 13 13 14 14 11 11 11 12 7 16 11 10 18 26 24 36 21 27 23 30
Wind_Direction
159 158 163 156 144 137 137 130 121 119 125 127 123 129 128 125 119 118 111 110 105 110 101 95 88 90 95 98 100 100 98 99 104 111 120 123 119 118 118 116 103 116 119
156 154 158 155 144 134 132 129 127 123 123 122 120 121 121 118 115 112 110 114 116 103 111 105 98 96 98 102 107 105 97 93 90 89 103 111 120 124 124 122 122 123 104
155 154 156 154 145 134 130 126 124 122 119 117 116 118 118 116 110 106 102 102 110 109 111 104 103 105 107 108 107 106 106 110 108 107 96 93 100 125 138 140 134 129 138
155 155 155 153 148 137 133 130 127 124 121 115 112 112 111 110 107 111 104 99 105 110 110 110 111 116 114 112 107 103 100 100 98 100 91 99 113 130 137 149 152 147 166
154 157 158 154 149 142 137 134 132 127 120 113 108 102 103 107 111 111 104 95 101 108 109 114 120 118 115 114 106 99 88 82 77 79 79 91 117 196 168 182 191 191 191
153 157 160 158 151 145 139 137 135 132 127 119 110 104 103 101 101 104 107 94 100 101 115 121 124 125 123 120 114 92 70 56 42 29 10 316 250 233 218 220 216 221 223
155 156 160 162 155 146 139 137 138 136 132 128 123 112 98 94 99 100 100 105 112 111 118 122 124 128 132 132 122 88 51 21 14 359 345 298 276 276 267 249 242 240 241
155 157 161 165 160 149 142 137 138 138 137 132 127 118 110 100 93 97 104 110 112 117 127 132 134 139 149 152 169 145 349 342 351 342 339 325 285 283 282 282 269 259 256
155 159 162 162 165 156 149 142 139 140 140 141 137 129 116 108 103 100 105 109 114 121 135 149 163 176 187 209 237 267 293 308 320 315 321 319 315 279 280 281 285 276 271
148 160 166 163 163 163 158 152 146 141 140 140 141 141 133 122 114 109 107 121 133 147 167 185 199 218 234 249 258 268 279 290 297 299 293 292 313 312 297 291 286 281 277
146 164 166 161 167 170 167 163 161 157 156 156 153 159 165 149 344 339 204 162 175 187 200 219 233 248 260 266 271 276 281 286 293 291 288 289 295 298 299 297 302 282 274
150 166 169 175 180 177 174 178 178 181 182 185 255 316 324 322 315 308 300 295 288 272 259 259 262 264 267 270 274 276 275 279 285 284 285 288 288 291 296 302 304 294 274
166 169 178 187 189 183 187 187 191 203 235 300 305 310 323 329 328 322 315 314 305 299 295 293 287 282 279 282 282 284 284 288 283 284 285 289 289 287 289 292 298 298 288
136 166 172 175 182 181 188 189 199 232 345 345 340 334 331 333 335 330 324 314 309 307 301 299 297 297 297 296 296 298 298 296 289 288 288 290 289 287 286 288 289 290 291
98 128 160 167 173 174 169 176 167 85 52 48 74 317 321 323 312 314 318 322 318 312 307 303 298 297 295 294 293 294 294 294 295 293 292 298 298 296 294 291 288 287 285
90 101 131 154 169 164 170 163 152 161 151 151 106 73 62 307 313 312 330 326 321 308 298 293 290 292 293 294 298 296 295 295 293 293 291 293 296 297 296 294 291 288 284
92 102 105 112 143 163 138 139 126 119 121 107 78 62 57 42 352 347 339 339 331 327 313 312 305 294 287 289 289 292 294 292 289 291 293 290 291 294 293 291 290 289 286
102 113 114 115 129 131 128 119 116 114 109 100 87 74 70 65 61 48 34 23 10 359 338 334 333 316 305 301 297 292 287 285 286 288 287 286 286 288 291 290 289 287 285
96 112 118 116 112 116 117 112 110 107 98 88 84 71 63 61 57 57 46 34 30 19 15 2 354 344 334 323 307 296 291 285 283 287 285 287 286 287 289 291 293 295 293
97 106 115 120 119 118 114 108 100 98 92 85 74 68 64 61 56 54 49 39 37 32 21 19 11 4 353 339 316 301 291 286 281 285 291 297 296 296 295 294 297 295 295
92 108 112 119 118 119 109 104 91 88 78 79 69 69 65 61 58 55 52 46 42 38 29 23 10 7 3 355 340 320 301 294 294 293 323 316 315 314 308 305 303 300 298
92 95 104 111 120 115 108 107 101 95 83 82 73 66 63 59 57 52 52 47 43 39 35 28 24 12 9 15 360 315 333 321 344 313 319 322 337 327 325 321 319 314 310
96 95 99 106 109 108 112 108 103 94 90 79 68 64 59 57 56 53 50 47 43 40 35 31 26 23 9 13 27 21 339 329 331 303 321 329 330 325 321 319 318 314 313
111 109 104 102 104 111 113 107 103 99 92 84 78 71 62 56 53 51 49 47 45 41 36 30 24 23 17 11 13 13 343 331 322 316 316 318 326 324 321 318 317 311 313
121 113 108 105 104 104 105 105 102 99 94 92 87 81 67 56 49 46 43 42 40 38 33 31 28 27 26 19 7 352 355 329 284 314 300 320 317 318 315 318 314 318 315
131 123 118 110 108 107 105 103 100 100 101 93 79 69 60 52 45 41 41 40 39 37 33 31 31 28 24 19 5 356 348 338 317 307 300 308 310 318 318 316 321 321 320